sat.trackr.live / text

‹ back to catalog

IRIDIUM 160

NORAD 43569 · 2018-061A

PAYLOAD ACTIVE UNKNOWN

§ Identity

Operator
Country
US
Launch date
2018-07-25
Launch site
AFWTR
Launch vehicle
Mass (kg)
RCS (m²)

Purposes: comms

External: N2YO · Heavens-Above · Gunter

§ Orbital elements

Epoch: 2026-09-11T20:27:26.236800Z

Period
100.40 min
Inclination
86.4002°
Eccentricity
0.0002142
Mean motion
14.34217253 rev/d
Perigee alt
776.1 km
Apogee alt
779.2 km
Semi-major
7,155.8 km
B*
2.1463e-5
RAAN
20.5497°
Arg perigee
95.0993°
Mean anomaly
265.0447°
Rev number
42,579

§ Raw data

IRIDIUM 1601 43569U 18061A   26254.85238700  .00000080  00000+0  21463-4 0  99922 43569  86.4002  20.5497 0002142  95.0993 265.0447 14.34217253425797

JSON: /api/v1/satellites/43569 · /tle

For live sub-satellite position, see the globe view (requires WebGL).

§ Visibility from observer

Set your observer location to see the next 7 days of passes ≥ 10°. The values pass through the URL so the page stays shareable.

No JS? Fill the form by hand. The geolocation button needs JavaScript.